Year,Month,Day,Hour,Minute,Value (Times are PST for temperature in C)
2019,04,25,00,00,7.60
2019,04,25,00,01,7.60
2019,04,25,00,02,7.60
2019,04,25,00,03,7.60
2019,04,25,00,04,7.60
2019,04,25,00,05,7.50
2019,04,25,00,06,7.50
2019,04,25,00,07,7.50
2019,04,25,00,08,7.50
2019,04,25,00,09,7.50
2019,04,25,00,10,7.50
2019,04,25,00,11,7.50
2019,04,25,00,12,7.50
2019,04,25,00,13,7.40
2019,04,25,00,14,7.40
2019,04,25,00,15,7.40
2019,04,25,00,16,7.40
2019,04,25,00,17,7.40
2019,04,25,00,18,7.40
2019,04,25,00,19,7.30
2019,04,25,00,20,7.30
2019,04,25,00,21,7.30
2019,04,25,00,22,7.30
2019,04,25,00,23,7.30
2019,04,25,00,24,7.30
2019,04,25,00,25,7.30
2019,04,25,00,26,7.20
2019,04,25,00,27,7.20
2019,04,25,00,28,7.20
2019,04,25,00,29,7.20
2019,04,25,00,30,7.20
2019,04,25,00,31,7.20
2019,04,25,00,32,7.20
2019,04,25,00,33,7.20
2019,04,25,00,34,7.10
2019,04,25,00,35,7.10
2019,04,25,00,36,7.10
2019,04,25,00,37,7.00
2019,04,25,00,38,7.00
2019,04,25,00,39,7.00
2019,04,25,00,40,7.00
2019,04,25,00,41,6.90
2019,04,25,00,42,6.90
2019,04,25,00,43,6.90
2019,04,25,00,44,6.90
2019,04,25,00,45,6.90
2019,04,25,00,46,6.90
2019,04,25,00,47,6.80
2019,04,25,00,48,6.80
2019,04,25,00,49,6.80
2019,04,25,00,50,6.80
2019,04,25,00,51,6.80
2019,04,25,00,52,6.80
2019,04,25,00,53,6.80
2019,04,25,00,54,6.80
2019,04,25,00,55,6.80
2019,04,25,00,56,6.80
2019,04,25,00,57,6.70
2019,04,25,00,58,6.70
2019,04,25,00,59,6.70
2019,04,25,01,00,6.70
2019,04,25,01,01,6.70
2019,04,25,01,02,6.70
2019,04,25,01,03,6.70
2019,04,25,01,04,6.60
2019,04,25,01,05,6.60
2019,04,25,01,06,6.60
2019,04,25,01,07,6.60
2019,04,25,01,08,6.60
2019,04,25,01,09,6.60
2019,04,25,01,10,6.60
2019,04,25,01,11,6.60
2019,04,25,01,12,6.60
2019,04,25,01,13,6.50
2019,04,25,01,14,6.50
2019,04,25,01,15,6.50
2019,04,25,01,16,6.40
2019,04,25,01,17,6.40
2019,04,25,01,18,6.40
2019,04,25,01,19,6.40
2019,04,25,01,20,6.40
2019,04,25,01,21,6.40
2019,04,25,01,22,6.30
2019,04,25,01,23,6.30
2019,04,25,01,24,6.30
2019,04,25,01,25,6.30
2019,04,25,01,26,6.30
2019,04,25,01,27,6.30
2019,04,25,01,28,6.20
2019,04,25,01,29,6.20
2019,04,25,01,30,6.20
2019,04,25,01,31,6.20
2019,04,25,01,32,6.20
2019,04,25,01,33,6.20
2019,04,25,01,34,6.20
2019,04,25,01,35,6.20
2019,04,25,01,36,6.20
2019,04,25,01,37,6.20
2019,04,25,01,38,6.20
2019,04,25,01,39,6.20
2019,04,25,01,40,6.20
2019,04,25,01,41,6.20
2019,04,25,01,42,6.20
2019,04,25,01,43,6.20
2019,04,25,01,44,6.20
2019,04,25,01,45,6.10
2019,04,25,01,46,6.10
2019,04,25,01,47,6.10
2019,04,25,01,48,6.10
2019,04,25,01,49,6.10
2019,04,25,01,50,6.00
2019,04,25,01,51,6.00
2019,04,25,01,52,6.00
2019,04,25,01,53,6.00
2019,04,25,01,54,6.00
2019,04,25,01,55,5.90
2019,04,25,01,56,5.90
2019,04,25,01,57,5.90
2019,04,25,01,58,5.90
2019,04,25,01,59,5.90
2019,04,25,02,00,5.80
2019,04,25,02,01,5.80
2019,04,25,02,02,5.80
2019,04,25,02,03,5.80
2019,04,25,02,04,5.80
2019,04,25,02,05,5.80
2019,04,25,02,06,5.80
2019,04,25,02,07,5.70
2019,04,25,02,08,5.70
2019,04,25,02,09,5.70
2019,04,25,02,10,5.70
2019,04,25,02,11,5.70
2019,04,25,02,12,5.70
2019,04,25,02,13,5.60
2019,04,25,02,14,5.60
2019,04,25,02,15,5.60
2019,04,25,02,16,5.60
2019,04,25,02,17,5.50
2019,04,25,02,18,5.50
2019,04,25,02,19,5.50
2019,04,25,02,20,5.40
2019,04,25,02,21,5.40
2019,04,25,02,22,5.40
2019,04,25,02,23,5.40
2019,04,25,02,24,5.40
2019,04,25,02,25,5.40
2019,04,25,02,26,5.40
2019,04,25,02,27,5.40
2019,04,25,02,28,5.40
2019,04,25,02,29,5.40
2019,04,25,02,30,5.30
2019,04,25,02,31,5.30
2019,04,25,02,32,5.30
2019,04,25,02,33,5.30
2019,04,25,02,34,5.30
2019,04,25,02,35,5.20
2019,04,25,02,36,5.20
2019,04,25,02,37,5.20
2019,04,25,02,38,5.20
2019,04,25,02,39,5.20
2019,04,25,02,40,5.20
2019,04,25,02,41,5.20
2019,04,25,02,42,5.20
2019,04,25,02,43,5.20
2019,04,25,02,44,5.20
2019,04,25,02,45,5.20
2019,04,25,02,46,5.20
2019,04,25,02,47,5.10
2019,04,25,02,48,5.10
2019,04,25,02,49,5.10
2019,04,25,02,50,5.10
2019,04,25,02,51,5.10
2019,04,25,02,52,5.10
2019,04,25,02,53,5.10
2019,04,25,02,54,5.10
2019,04,25,02,55,5.10
2019,04,25,02,56,5.10
2019,04,25,02,57,5.00
2019,04,25,02,58,5.00
2019,04,25,02,59,5.00
2019,04,25,03,00,5.00
2019,04,25,03,01,5.00
2019,04,25,03,02,5.10
2019,04,25,03,03,5.10
2019,04,25,03,04,5.10
2019,04,25,03,05,5.10
2019,04,25,03,06,5.10
2019,04,25,03,07,5.10
2019,04,25,03,08,5.10
2019,04,25,03,09,5.10
2019,04,25,03,10,5.10
2019,04,25,03,11,5.10
2019,04,25,03,12,5.10
2019,04,25,03,13,5.10
2019,04,25,03,14,5.10
2019,04,25,03,15,5.10
2019,04,25,03,16,5.10
2019,04,25,03,17,5.10
2019,04,25,03,18,5.10
2019,04,25,03,19,5.00
2019,04,25,03,20,5.00
2019,04,25,03,21,5.00
2019,04,25,03,22,4.90
2019,04,25,03,23,4.90
2019,04,25,03,24,4.90
2019,04,25,03,25,4.90
2019,04,25,03,26,4.90
2019,04,25,03,27,4.80
2019,04,25,03,28,4.80
2019,04,25,03,29,4.80
2019,04,25,03,30,4.80
2019,04,25,03,31,4.80
2019,04,25,03,32,4.70
2019,04,25,03,33,4.70
2019,04,25,03,34,4.70
2019,04,25,03,35,4.70
2019,04,25,03,36,4.60
2019,04,25,03,37,4.60
2019,04,25,03,38,4.60
2019,04,25,03,39,4.60
2019,04,25,03,40,4.60
2019,04,25,03,41,4.60
2019,04,25,03,42,4.60
2019,04,25,03,43,4.60
2019,04,25,03,44,4.60
2019,04,25,03,45,4.50
2019,04,25,03,46,4.50
2019,04,25,03,47,4.50
2019,04,25,03,48,4.50
2019,04,25,03,49,4.50
2019,04,25,03,50,4.40
2019,04,25,03,51,4.40
2019,04,25,03,52,4.40
2019,04,25,03,53,4.40
2019,04,25,03,54,4.30
2019,04,25,03,55,4.30
2019,04,25,03,56,4.30
2019,04,25,03,57,4.30
2019,04,25,03,58,4.30
2019,04,25,03,59,4.30
2019,04,25,04,00,4.30
2019,04,25,04,01,4.30
2019,04,25,04,02,4.30
2019,04,25,04,03,4.20
2019,04,25,04,04,4.20
2019,04,25,04,05,4.20
2019,04,25,04,06,4.20
2019,04,25,04,07,4.20
2019,04,25,04,08,4.20
2019,04,25,04,09,4.20
2019,04,25,04,10,4.20
2019,04,25,04,11,4.20
2019,04,25,04,12,4.20
2019,04,25,04,13,4.20
2019,04,25,04,14,4.10
2019,04,25,04,15,4.10
2019,04,25,04,16,4.10
2019,04,25,04,17,4.10
2019,04,25,04,18,4.10
2019,04,25,04,19,4.00
2019,04,25,04,20,4.00
2019,04,25,04,21,4.00
2019,04,25,04,22,4.00
2019,04,25,04,23,4.00
2019,04,25,04,24,4.00
2019,04,25,04,25,4.00
2019,04,25,04,26,4.00
2019,04,25,04,27,4.00
2019,04,25,04,28,4.00
2019,04,25,04,29,4.00
2019,04,25,04,30,4.00
2019,04,25,04,31,4.00
2019,04,25,04,32,4.00
2019,04,25,04,33,4.00
2019,04,25,04,34,4.00
2019,04,25,04,35,4.00
2019,04,25,04,36,3.90
2019,04,25,04,37,3.90
2019,04,25,04,38,3.90
2019,04,25,04,39,3.90
2019,04,25,04,40,3.90
2019,04,25,04,41,3.90
2019,04,25,04,42,3.80
2019,04,25,04,43,3.80
2019,04,25,04,44,3.80
2019,04,25,04,45,3.80
2019,04,25,04,46,3.80
2019,04,25,04,47,3.80
2019,04,25,04,48,3.80
2019,04,25,04,49,3.80
2019,04,25,04,50,3.80
2019,04,25,04,51,3.80
2019,04,25,04,52,3.80
2019,04,25,04,53,3.80
2019,04,25,04,54,3.80
2019,04,25,04,55,3.80
2019,04,25,04,56,3.80
2019,04,25,04,57,3.70
2019,04,25,04,58,3.70
2019,04,25,04,59,3.70
2019,04,25,05,00,3.70
2019,04,25,05,01,3.70
2019,04,25,05,02,3.70
2019,04,25,05,03,3.70
2019,04,25,05,04,3.70
2019,04,25,05,05,3.70
2019,04,25,05,06,3.70
2019,04,25,05,07,3.70
2019,04,25,05,08,3.70
2019,04,25,05,09,3.70
2019,04,25,05,10,3.70
2019,04,25,05,11,3.70
2019,04,25,05,12,3.70
2019,04,25,05,13,3.70
2019,04,25,05,14,3.60
2019,04,25,05,15,3.60
2019,04,25,05,16,3.60
2019,04,25,05,17,3.60
2019,04,25,05,18,3.60
2019,04,25,05,19,3.50
2019,04,25,05,20,3.50
2019,04,25,05,21,3.50
2019,04,25,05,22,3.50
2019,04,25,05,23,3.50
2019,04,25,05,24,3.50
2019,04,25,05,25,3.40
2019,04,25,05,26,3.40
2019,04,25,05,27,3.40
2019,04,25,05,28,3.40
2019,04,25,05,29,3.40
2019,04,25,05,30,3.40
2019,04,25,05,31,3.40
2019,04,25,05,32,3.30
2019,04,25,05,33,3.30
2019,04,25,05,34,3.30
2019,04,25,05,35,3.30
2019,04,25,05,36,3.30
2019,04,25,05,37,3.30
2019,04,25,05,38,3.30
2019,04,25,05,39,3.30
2019,04,25,05,40,3.30
2019,04,25,05,41,3.30
2019,04,25,05,42,3.30
2019,04,25,05,43,3.30
2019,04,25,05,44,3.30
2019,04,25,05,45,3.30
2019,04,25,05,46,3.30
2019,04,25,05,47,3.30
2019,04,25,05,48,3.30
2019,04,25,05,49,3.20
2019,04,25,05,50,3.20
2019,04,25,05,51,3.20
2019,04,25,05,52,3.20
2019,04,25,05,53,3.20
2019,04,25,05,54,3.20
2019,04,25,05,55,3.20
2019,04,25,05,56,3.20
2019,04,25,05,57,3.20
2019,04,25,05,58,3.20
2019,04,25,05,59,3.20
2019,04,25,06,00,3.20
2019,04,25,06,01,3.20
2019,04,25,06,02,3.20
2019,04,25,06,03,3.20
2019,04,25,06,04,3.20
2019,04,25,06,05,3.20
2019,04,25,06,06,3.20
2019,04,25,06,07,3.20
2019,04,25,06,08,3.20
2019,04,25,06,09,3.20
2019,04,25,06,10,3.20
2019,04,25,06,11,3.20
2019,04,25,06,12,3.20
2019,04,25,06,13,3.20
2019,04,25,06,14,3.20
2019,04,25,06,15,3.20
2019,04,25,06,16,3.30
2019,04,25,06,17,3.30
2019,04,25,06,18,3.30
2019,04,25,06,19,3.30
2019,04,25,06,20,3.30
2019,04,25,06,21,3.30
2019,04,25,06,22,3.30
2019,04,25,06,23,3.30
2019,04,25,06,24,3.30
2019,04,25,06,25,3.30
2019,04,25,06,26,3.30
2019,04,25,06,27,3.30
2019,04,25,06,28,3.30
2019,04,25,06,29,3.20
2019,04,25,06,30,3.20
2019,04,25,06,31,3.30
2019,04,25,06,32,3.30
2019,04,25,06,33,3.30
2019,04,25,06,34,3.30
2019,04,25,06,35,3.30
2019,04,25,06,36,3.40
2019,04,25,06,37,3.40
2019,04,25,06,38,3.40
2019,04,25,06,39,3.40
2019,04,25,06,40,3.40
2019,04,25,06,41,3.50
2019,04,25,06,42,3.50
2019,04,25,06,43,3.50
2019,04,25,06,44,3.60
2019,04,25,06,45,3.60
2019,04,25,06,46,3.60
2019,04,25,06,47,3.60
2019,04,25,06,48,3.60
2019,04,25,06,49,3.60
2019,04,25,06,50,3.60
2019,04,25,06,51,3.60
2019,04,25,06,52,3.60
2019,04,25,06,53,3.60
2019,04,25,06,54,3.60
2019,04,25,06,55,3.60
2019,04,25,06,56,3.60
2019,04,25,06,57,3.60
2019,04,25,06,58,3.60
2019,04,25,06,59,3.60
2019,04,25,07,00,3.60
2019,04,25,07,01,3.60
2019,04,25,07,02,3.60
2019,04,25,07,03,3.60
2019,04,25,07,04,3.60
2019,04,25,07,05,3.60
2019,04,25,07,06,3.60
2019,04,25,07,07,3.60
2019,04,25,07,08,3.60
2019,04,25,07,09,3.60
2019,04,25,07,10,3.60
2019,04,25,07,11,3.60
2019,04,25,07,12,3.60
2019,04,25,07,13,3.60
2019,04,25,07,14,3.70
2019,04,25,07,15,3.70
2019,04,25,07,16,3.70
2019,04,25,07,17,3.80
2019,04,25,07,18,3.80
2019,04,25,07,19,3.80
2019,04,25,07,20,3.90
2019,04,25,07,21,3.90
2019,04,25,07,22,3.90
2019,04,25,07,23,4.00
2019,04,25,07,24,4.00
2019,04,25,07,25,4.10
2019,04,25,07,26,4.10
2019,04,25,07,27,4.20
2019,04,25,07,28,4.20
2019,04,25,07,29,4.30
2019,04,25,07,30,4.30
2019,04,25,07,31,4.40
2019,04,25,07,32,4.40
2019,04,25,07,33,4.50
2019,04,25,07,34,4.50
2019,04,25,07,35,4.60
2019,04,25,07,36,4.70
2019,04,25,07,37,4.70
2019,04,25,07,38,4.80
2019,04,25,07,39,4.80
2019,04,25,07,40,4.90
2019,04,25,07,41,4.90
2019,04,25,07,42,5.00
2019,04,25,07,43,5.10
2019,04,25,07,44,5.20
2019,04,25,07,45,5.20
2019,04,25,07,46,5.30
2019,04,25,07,47,5.30
2019,04,25,07,48,5.40
2019,04,25,07,49,5.40
2019,04,25,07,50,5.50
2019,04,25,07,51,5.60
2019,04,25,07,52,5.60
2019,04,25,07,53,5.70
2019,04,25,07,54,5.70
2019,04,25,07,55,5.70
2019,04,25,07,56,5.80
2019,04,25,07,57,5.80
2019,04,25,07,58,5.80
2019,04,25,07,59,5.80
2019,04,25,08,00,5.90
2019,04,25,08,01,5.90
2019,04,25,08,02,5.90
2019,04,25,08,03,5.90
2019,04,25,08,04,5.90
2019,04,25,08,05,5.90
2019,04,25,08,06,5.90
2019,04,25,08,07,5.90
2019,04,25,08,08,5.90
2019,04,25,08,09,5.90
2019,04,25,08,10,5.90
2019,04,25,08,11,5.90
2019,04,25,08,12,6.00
2019,04,25,08,13,6.00
2019,04,25,08,14,6.00
2019,04,25,08,15,6.00
2019,04,25,08,16,6.00
2019,04,25,08,17,6.10
2019,04,25,08,18,6.10
2019,04,25,08,19,6.10
2019,04,25,08,20,6.10
2019,04,25,08,21,6.10
2019,04,25,08,22,6.10
2019,04,25,08,23,6.10
2019,04,25,08,24,6.20
2019,04,25,08,25,6.20
2019,04,25,08,26,6.20
2019,04,25,08,27,6.20
2019,04,25,08,28,6.20
2019,04,25,08,29,6.20
2019,04,25,08,30,6.20
2019,04,25,08,31,6.20
2019,04,25,08,32,6.30
2019,04,25,08,33,6.30
2019,04,25,08,34,6.40
2019,04,25,08,35,6.50
2019,04,25,08,36,6.50
2019,04,25,08,37,6.60
2019,04,25,08,38,6.70
2019,04,25,08,39,6.70
2019,04,25,08,40,6.70
2019,04,25,08,41,6.80
2019,04,25,08,42,6.80
2019,04,25,08,43,6.80
2019,04,25,08,44,6.80
2019,04,25,08,45,6.80
2019,04,25,08,46,6.80
2019,04,25,08,47,6.80
2019,04,25,08,48,6.80
2019,04,25,08,49,6.80
2019,04,25,08,50,6.80
2019,04,25,08,51,6.80
2019,04,25,08,52,6.80
2019,04,25,08,53,6.80
2019,04,25,08,54,6.80
2019,04,25,08,55,6.90
2019,04,25,08,56,6.90
2019,04,25,08,57,7.00
2019,04,25,08,58,7.00
2019,04,25,08,59,7.10
2019,04,25,09,00,7.10
2019,04,25,09,01,7.10
2019,04,25,09,02,7.20
2019,04,25,09,03,7.20
2019,04,25,09,04,7.20
2019,04,25,09,05,7.20
2019,04,25,09,06,7.20
2019,04,25,09,07,7.20
2019,04,25,09,08,7.30
2019,04,25,09,09,7.30
2019,04,25,09,10,7.30
2019,04,25,09,11,7.30
2019,04,25,09,12,7.30
2019,04,25,09,13,7.40
2019,04,25,09,14,7.40
2019,04,25,09,15,7.40
2019,04,25,09,16,7.30
2019,04,25,09,17,7.30
2019,04,25,09,18,7.30
2019,04,25,09,19,7.20
2019,04,25,09,20,7.20
2019,04,25,09,21,7.20
2019,04,25,09,22,7.20
2019,04,25,09,23,7.20
2019,04,25,09,24,7.20
2019,04,25,09,25,7.20
2019,04,25,09,26,7.10
2019,04,25,09,27,7.10
2019,04,25,09,28,7.10
2019,04,25,09,29,7.10
2019,04,25,09,30,7.10
2019,04,25,09,31,7.10
2019,04,25,09,32,7.10
2019,04,25,09,33,7.20
2019,04,25,09,34,7.20
2019,04,25,09,35,7.30
2019,04,25,09,36,7.30
2019,04,25,09,37,7.30
2019,04,25,09,38,7.40
2019,04,25,09,39,7.40
2019,04,25,09,40,7.40
2019,04,25,09,41,7.40
2019,04,25,09,42,7.40
2019,04,25,09,43,7.50
2019,04,25,09,44,7.50
2019,04,25,09,45,7.60
2019,04,25,09,46,7.60
2019,04,25,09,47,7.60
2019,04,25,09,48,7.60
2019,04,25,09,49,7.60
2019,04,25,09,50,7.60
2019,04,25,09,51,7.60
2019,04,25,09,52,7.70
2019,04,25,09,53,7.70
2019,04,25,09,54,7.70
2019,04,25,09,55,7.80
2019,04,25,09,56,7.80
2019,04,25,09,57,7.80
2019,04,25,09,58,7.90
2019,04,25,09,59,8.00
2019,04,25,10,00,8.10
2019,04,25,10,01,8.10
2019,04,25,10,02,8.20
2019,04,25,10,03,8.30
2019,04,25,10,04,8.40
2019,04,25,10,05,8.50
2019,04,25,10,06,8.60
2019,04,25,10,07,8.60
2019,04,25,10,08,8.60
2019,04,25,10,09,8.70
2019,04,25,10,10,8.70
2019,04,25,10,11,8.70
2019,04,25,10,12,8.70
2019,04,25,10,13,8.70
2019,04,25,10,14,8.80
2019,04,25,10,15,8.80
2019,04,25,10,16,8.80
2019,04,25,10,17,8.90
2019,04,25,10,18,8.90
2019,04,25,10,19,8.90
2019,04,25,10,20,9.00
2019,04,25,10,21,9.10
2019,04,25,10,22,9.10
2019,04,25,10,23,9.20
2019,04,25,10,24,9.20
2019,04,25,10,25,9.20
2019,04,25,10,26,9.30
2019,04,25,10,27,9.30
2019,04,25,10,28,9.30
2019,04,25,10,29,9.40
2019,04,25,10,30,9.40
2019,04,25,10,31,9.40
2019,04,25,10,32,9.80
2019,04,25,10,33,9.80
2019,04,25,10,34,9.90
2019,04,25,10,35,9.90
2019,04,25,10,36,10.00
2019,04,25,10,37,10.00
2019,04,25,10,38,10.10
2019,04,25,10,39,10.10
2019,04,25,10,40,10.20
2019,04,25,10,41,10.20
2019,04,25,10,42,10.30
2019,04,25,10,43,10.30
2019,04,25,10,44,10.40
2019,04,25,10,45,10.40
2019,04,25,10,46,10.40
2019,04,25,10,47,10.50
2019,04,25,10,48,10.50
2019,04,25,10,49,10.50
2019,04,25,10,50,10.60
2019,04,25,10,51,10.60
2019,04,25,10,52,10.70
2019,04,25,10,53,10.80
2019,04,25,10,54,10.80
2019,04,25,10,55,10.90
2019,04,25,10,56,10.90
2019,04,25,10,57,11.00
2019,04,25,10,58,11.10
2019,04,25,10,59,11.10
2019,04,25,11,00,11.20
2019,04,25,11,01,11.20
2019,04,25,11,02,11.20
2019,04,25,11,03,11.30
2019,04,25,11,04,11.30
2019,04,25,11,05,11.30
2019,04,25,11,06,11.30
2019,04,25,11,07,11.40
2019,04,25,11,08,11.40
2019,04,25,11,09,11.50
2019,04,25,11,10,11.60
2019,04,25,11,11,11.70
2019,04,25,11,12,11.70
2019,04,25,11,13,11.70
2019,04,25,11,14,11.80
2019,04,25,11,15,11.80
2019,04,25,11,16,11.80
2019,04,25,11,17,11.80
2019,04,25,11,18,11.80
2019,04,25,11,19,11.80
2019,04,25,11,20,11.80
2019,04,25,11,21,11.80
2019,04,25,11,22,11.90
2019,04,25,11,23,11.90
2019,04,25,11,24,11.90
2019,04,25,11,25,11.80
2019,04,25,11,26,11.80
2019,04,25,11,27,11.80
2019,04,25,11,28,11.80
2019,04,25,11,29,11.90
2019,04,25,11,30,11.90
2019,04,25,11,31,11.90
2019,04,25,11,32,12.00
2019,04,25,11,33,12.00
2019,04,25,11,34,12.00
2019,04,25,11,35,12.10
2019,04,25,11,36,12.10
2019,04,25,11,37,12.20
2019,04,25,11,38,12.30
2019,04,25,11,39,12.30
2019,04,25,11,40,12.40
2019,04,25,11,41,12.50
2019,04,25,11,42,12.50
2019,04,25,11,43,12.60
2019,04,25,11,44,12.60
2019,04,25,11,45,12.70
2019,04,25,11,46,12.70
2019,04,25,11,47,12.70
2019,04,25,11,48,12.80
2019,04,25,11,49,12.80
2019,04,25,11,50,12.90
2019,04,25,11,51,13.00
2019,04,25,11,52,13.00
2019,04,25,11,53,13.10
2019,04,25,11,54,13.10
2019,04,25,11,55,13.10
2019,04,25,11,56,13.00
2019,04,25,11,57,12.90
2019,04,25,11,58,12.90
2019,04,25,11,59,12.90
2019,04,25,12,00,13.00
2019,04,25,12,01,13.10
2019,04,25,12,02,13.20
2019,04,25,12,03,13.30
2019,04,25,12,04,13.30
2019,04,25,12,05,13.40
2019,04,25,12,06,13.40
2019,04,25,12,07,13.40
2019,04,25,12,08,13.40
2019,04,25,12,09,13.40
2019,04,25,12,10,13.40
2019,04,25,12,11,13.40
2019,04,25,12,12,13.50
2019,04,25,12,13,13.50
2019,04,25,12,14,13.60
2019,04,25,12,15,13.60
2019,04,25,12,16,13.60
2019,04,25,12,17,13.70
2019,04,25,12,18,13.80
2019,04,25,12,19,13.80
2019,04,25,12,20,13.80
2019,04,25,12,21,13.90
2019,04,25,12,22,14.00
2019,04,25,12,23,14.00
2019,04,25,12,24,14.00
2019,04,25,12,25,14.00
2019,04,25,12,26,14.10
2019,04,25,12,27,14.10
2019,04,25,12,28,14.10
2019,04,25,12,29,14.20
2019,04,25,12,30,14.20
2019,04,25,12,31,14.20
2019,04,25,12,32,14.20
2019,04,25,12,33,14.20
2019,04,25,12,34,14.20
2019,04,25,12,35,14.20
2019,04,25,12,36,14.20
2019,04,25,12,37,14.20
2019,04,25,12,38,14.30
2019,04,25,12,39,14.40
2019,04,25,12,40,14.40
2019,04,25,12,41,14.40
2019,04,25,12,42,14.40
2019,04,25,12,43,14.40
2019,04,25,12,44,14.40
2019,04,25,12,45,14.40
2019,04,25,12,46,14.40
2019,04,25,12,47,14.40
2019,04,25,12,48,14.50
2019,04,25,12,49,14.60
2019,04,25,12,50,14.70
2019,04,25,12,51,14.80
2019,04,25,12,52,14.70
2019,04,25,12,53,14.70
2019,04,25,12,54,14.60
2019,04,25,12,55,14.60
2019,04,25,12,56,14.50
2019,04,25,12,57,14.50
2019,04,25,12,58,14.50
2019,04,25,12,59,14.60
2019,04,25,13,00,14.70
2019,04,25,13,01,14.80
2019,04,25,13,02,14.80
2019,04,25,13,03,14.80
2019,04,25,13,04,14.80
2019,04,25,13,05,14.80
2019,04,25,13,06,14.90
2019,04,25,13,07,15.00
2019,04,25,13,08,15.00
2019,04,25,13,09,14.90
2019,04,25,13,10,15.00
2019,04,25,13,11,15.00
2019,04,25,13,12,15.00
2019,04,25,13,13,15.00
2019,04,25,13,14,15.00
2019,04,25,13,15,14.90
2019,04,25,13,16,14.90
2019,04,25,13,17,14.90
2019,04,25,13,18,14.90
2019,04,25,13,19,15.00
2019,04,25,13,20,15.00
2019,04,25,13,21,15.00
2019,04,25,13,22,15.00
2019,04,25,13,23,15.10
2019,04,25,13,24,15.10
2019,04,25,13,25,15.20
2019,04,25,13,26,15.20
2019,04,25,13,27,15.10
2019,04,25,13,28,15.20
2019,04,25,13,29,15.20
2019,04,25,13,30,15.20
2019,04,25,13,31,15.20
2019,04,25,13,32,15.20
2019,04,25,13,33,15.20
2019,04,25,13,34,15.30
2019,04,25,13,35,15.30
2019,04,25,13,36,15.30
2019,04,25,13,37,15.30
2019,04,25,13,38,15.30
2019,04,25,13,39,15.30
2019,04,25,13,40,15.40
2019,04,25,13,41,15.40
2019,04,25,13,42,15.40
2019,04,25,13,43,15.40
2019,04,25,13,44,15.50
2019,04,25,13,45,15.60
2019,04,25,13,46,15.70
2019,04,25,13,47,15.70
2019,04,25,13,48,15.70
2019,04,25,13,49,15.70
2019,04,25,13,50,15.80
2019,04,25,13,51,15.80
2019,04,25,13,52,15.90
2019,04,25,13,53,15.90
2019,04,25,13,54,15.90
2019,04,25,13,55,15.80
2019,04,25,13,56,15.80
2019,04,25,13,57,15.80
2019,04,25,13,58,15.80
2019,04,25,13,59,15.80
2019,04,25,14,00,15.80
2019,04,25,14,01,15.80
2019,04,25,14,02,15.90
2019,04,25,14,03,15.90
2019,04,25,14,04,15.90
2019,04,25,14,05,15.90
2019,04,25,14,06,15.90
2019,04,25,14,07,15.90
2019,04,25,14,08,15.80
2019,04,25,14,09,15.80
2019,04,25,14,10,15.80
2019,04,25,14,11,15.80
2019,04,25,14,12,15.80
2019,04,25,14,13,15.80
2019,04,25,14,14,15.90
2019,04,25,14,15,16.00
2019,04,25,14,16,16.00
2019,04,25,14,17,15.90
2019,04,25,14,18,15.90
2019,04,25,14,19,15.90
2019,04,25,14,20,15.90
2019,04,25,14,21,15.90
2019,04,25,14,22,15.90
2019,04,25,14,23,16.00
2019,04,25,14,24,15.90
2019,04,25,14,25,16.00
2019,04,25,14,26,16.00
2019,04,25,14,27,16.00
2019,04,25,14,28,16.00
2019,04,25,14,29,16.10
2019,04,25,14,30,16.20
2019,04,25,14,31,16.20
2019,04,25,14,32,16.30
2019,04,25,14,33,16.30
2019,04,25,14,34,16.30
2019,04,25,14,35,16.30
2019,04,25,14,36,16.30
2019,04,25,14,37,16.40
2019,04,25,14,38,16.40
2019,04,25,14,39,16.50
2019,04,25,14,40,16.50
2019,04,25,14,41,16.50
2019,04,25,14,42,16.40
2019,04,25,14,43,16.40
2019,04,25,14,44,16.30
2019,04,25,14,45,16.30
2019,04,25,14,46,16.30
2019,04,25,14,47,16.30
2019,04,25,14,48,16.20
2019,04,25,14,49,16.20
2019,04,25,14,50,16.20
2019,04,25,14,51,16.20
2019,04,25,14,52,16.20
2019,04,25,14,53,16.30
2019,04,25,14,54,16.30
2019,04,25,14,55,16.30
2019,04,25,14,56,16.30
2019,04,25,14,57,16.20
2019,04,25,14,58,16.20
2019,04,25,14,59,16.20
2019,04,25,15,00,16.30
2019,04,25,15,01,16.40
2019,04,25,15,02,16.40
2019,04,25,15,03,16.40
2019,04,25,15,04,16.40
2019,04,25,15,05,16.50
2019,04,25,15,06,16.50
2019,04,25,15,07,16.60
2019,04,25,15,08,16.70
2019,04,25,15,09,16.80
2019,04,25,15,10,16.80
2019,04,25,15,11,16.80
2019,04,25,15,12,16.80
2019,04,25,15,13,16.80
2019,04,25,15,14,16.80
2019,04,25,15,15,16.90
2019,04,25,15,16,16.90
2019,04,25,15,17,16.80
2019,04,25,15,18,16.70
2019,04,25,15,19,16.70
2019,04,25,15,20,16.80
2019,04,25,15,21,16.90
2019,04,25,15,22,17.00
2019,04,25,15,23,17.10
2019,04,25,15,24,17.10
2019,04,25,15,25,17.00
2019,04,25,15,26,16.90
2019,04,25,15,27,16.90
2019,04,25,15,28,16.90
2019,04,25,15,29,16.90
2019,04,25,15,30,17.00
2019,04,25,15,31,17.00
2019,04,25,15,32,17.00
2019,04,25,15,33,16.90
2019,04,25,15,34,16.90
2019,04,25,15,35,16.90
2019,04,25,15,36,16.90
2019,04,25,15,37,16.90
2019,04,25,15,38,16.90
2019,04,25,15,39,16.90
2019,04,25,15,40,16.90
2019,04,25,15,41,16.90
2019,04,25,15,42,16.80
2019,04,25,15,43,16.80
2019,04,25,15,44,16.80
2019,04,25,15,45,16.80
2019,04,25,15,46,16.90
2019,04,25,15,47,16.90
2019,04,25,15,48,16.90
2019,04,25,15,49,17.00
2019,04,25,15,50,17.00
2019,04,25,15,51,17.10
2019,04,25,15,52,17.00
2019,04,25,15,53,17.00
2019,04,25,15,54,17.00
2019,04,25,15,55,17.00
2019,04,25,15,56,16.90
2019,04,25,15,57,16.90
2019,04,25,15,58,16.90
2019,04,25,15,59,16.90
2019,04,25,16,00,16.90
2019,04,25,16,01,16.90
2019,04,25,16,02,16.90
2019,04,25,16,03,17.00
2019,04,25,16,04,17.00
2019,04,25,16,05,17.00
2019,04,25,16,06,17.00
2019,04,25,16,07,17.00
2019,04,25,16,08,17.00
2019,04,25,16,09,17.00
2019,04,25,16,10,17.00
2019,04,25,16,11,17.00
2019,04,25,16,12,17.00
2019,04,25,16,13,17.00
2019,04,25,16,14,17.00
2019,04,25,16,15,17.00
2019,04,25,16,16,17.00
2019,04,25,16,17,17.00
2019,04,25,16,18,16.90
2019,04,25,16,19,17.00
2019,04,25,16,20,17.00
2019,04,25,16,21,16.90
2019,04,25,16,22,16.90
2019,04,25,16,23,16.90
2019,04,25,16,24,16.90
2019,04,25,16,25,16.90
2019,04,25,16,26,16.90
2019,04,25,16,27,17.00
2019,04,25,16,28,17.10
2019,04,25,16,29,17.10
2019,04,25,16,30,17.10
2019,04,25,16,31,17.00
2019,04,25,16,32,17.00
2019,04,25,16,33,16.90
2019,04,25,16,34,16.80
2019,04,25,16,35,16.80
2019,04,25,16,36,16.80
2019,04,25,16,37,16.80
2019,04,25,16,38,16.90
2019,04,25,16,39,16.90
2019,04,25,16,40,16.90
2019,04,25,16,41,16.90
2019,04,25,16,42,16.90
2019,04,25,16,43,16.90
2019,04,25,16,44,16.80
2019,04,25,16,45,16.80
2019,04,25,16,46,16.80
2019,04,25,16,47,16.80
2019,04,25,16,48,16.80
2019,04,25,16,49,16.80
2019,04,25,16,50,16.80
2019,04,25,16,51,16.80
2019,04,25,16,52,16.80
2019,04,25,16,53,16.70
2019,04,25,16,54,16.80
2019,04,25,16,55,16.80
2019,04,25,16,56,16.80
2019,04,25,16,57,16.80
2019,04,25,16,58,16.80
2019,04,25,16,59,16.80
2019,04,25,17,00,16.80
2019,04,25,17,01,16.80
2019,04,25,17,02,16.90
2019,04,25,17,03,16.90
2019,04,25,17,04,16.90
2019,04,25,17,05,16.90
2019,04,25,17,06,16.90
2019,04,25,17,07,16.90
2019,04,25,17,08,16.80
2019,04,25,17,09,16.80
2019,04,25,17,10,16.80
2019,04,25,17,11,16.80
2019,04,25,17,12,16.80
2019,04,25,17,13,16.70
2019,04,25,17,14,16.70
2019,04,25,17,15,16.70
2019,04,25,17,16,16.70
2019,04,25,17,17,16.70
2019,04,25,17,18,16.70
2019,04,25,17,19,16.70
2019,04,25,17,20,16.70
2019,04,25,17,21,16.70
2019,04,25,17,22,16.70
2019,04,25,17,23,16.70
2019,04,25,17,24,16.80
2019,04,25,17,25,16.90
2019,04,25,17,26,16.90
2019,04,25,17,27,16.90
2019,04,25,17,28,16.90
2019,04,25,17,29,16.90
2019,04,25,17,30,16.90
2019,04,25,17,31,16.90
2019,04,25,17,32,16.90
2019,04,25,17,33,16.90
2019,04,25,17,34,16.90
2019,04,25,17,35,16.90
2019,04,25,17,36,16.90
2019,04,25,17,37,16.90
2019,04,25,17,38,16.90
2019,04,25,17,39,16.90
2019,04,25,17,40,16.90
2019,04,25,17,41,16.80
2019,04,25,17,42,16.80
2019,04,25,17,43,16.80
2019,04,25,17,44,16.80
2019,04,25,17,45,16.70
2019,04,25,17,46,16.70
2019,04,25,17,47,16.70